iso_date,epoch_date,Year,Hour,Min,DOY,POS_DOY,Lat,Lon,BP,Ts,Ta,has_bp,has_ts,has_ta,BuoyID,Buoy_Type,Buoy_Owner,Logistics,Hemisphere
2020-09-07T22:00:02Z,1599516003,2020,22,0,251.9167,251.9167,58.839,-179.267,1015.4,10.21,-999.0,yes,yes,no,300534060711630,BD2GI,AOML,ARAON,North
2020-09-07T22:59:57Z,1599519597,2020,23,0,251.9583,251.9583,58.84,-179.274,1015.8,10.23,-999.0,yes,yes,no,300534060711630,BD2GI,AOML,ARAON,North
2020-09-08T00:00:00Z,1599523200,2020,0,0,252.0,252.0,58.841,-179.277,1016.2,10.26,-999.0,yes,yes,no,300534060711630,BD2GI,AOML,ARAON,North
2020-09-08T01:00:02Z,1599526803,2020,1,0,252.0417,252.0417,58.844,-179.275,1016.8,10.3,-999.0,yes,yes,no,300534060711630,BD2GI,AOML,ARAON,North
2020-09-08T01:59:57Z,1599530397,2020,2,0,252.0833,252.0833,58.843,-179.269,1017.0,10.33,-999.0,yes,yes,no,300534060711630,BD2GI,AOML,ARAON,North
2020-09-08T03:00:00Z,1599534000,2020,3,0,252.125,252.125,58.842,-179.262,1017.3,10.36,-999.0,yes,yes,no,300534060711630,BD2GI,AOML,ARAON,North
2020-09-08T04:00:02Z,1599537603,2020,4,0,252.1667,252.1667,58.839,-179.254,1017.8,10.35,-999.0,yes,yes,no,300534060711630,BD2GI,AOML,ARAON,North
2020-09-08T04:59:57Z,1599541197,2020,5,0,252.2083,252.2083,58.835,-179.247,1018.3,10.35,-999.0,yes,yes,no,300534060711630,BD2GI,AOML,ARAON,North
2020-09-08T06:00:00Z,1599544800,2020,6,0,252.25,252.25,58.828,-179.243,1018.7,10.33,-999.0,yes,yes,no,300534060711630,BD2GI,AOML,ARAON,North
2020-09-08T07:00:02Z,1599548403,2020,7,0,252.2917,252.2917,58.821,-179.242,1019.5,10.31,-999.0,yes,yes,no,300534060711630,BD2GI,AOML,ARAON,North
2020-09-08T07:59:57Z,1599551997,2020,8,0,252.3333,252.3333,58.816,-179.246,1019.9,10.31,-999.0,yes,yes,no,300534060711630,BD2GI,AOML,ARAON,North
2020-09-08T09:00:00Z,1599555600,2020,9,0,252.375,252.375,58.813,-179.249,1020.2,10.3,-999.0,yes,yes,no,300534060711630,BD2GI,AOML,ARAON,North
2020-09-08T10:00:02Z,1599559203,2020,10,0,252.4167,252.4167,58.81,-179.252,1020.7,10.29,-999.0,yes,yes,no,300534060711630,BD2GI,AOML,ARAON,North
2020-09-08T10:59:57Z,1599562797,2020,11,0,252.4583,252.4583,58.806,-179.253,1021.1,10.22,-999.0,yes,yes,no,300534060711630,BD2GI,AOML,ARAON,North
2020-09-08T12:00:00Z,1599566400,2020,12,0,252.5,252.5,58.802,-179.255,1021.4,10.19,-999.0,yes,yes,no,300534060711630,BD2GI,AOML,ARAON,North
2020-09-08T13:00:02Z,1599570003,2020,13,0,252.5417,252.5417,58.799,-179.255,1021.7,10.23,-999.0,yes,yes,no,300534060711630,BD2GI,AOML,ARAON,North
2020-09-08T13:59:57Z,1599573597,2020,14,0,252.5833,252.5833,58.795,-179.252,1021.7,10.23,-999.0,yes,yes,no,300534060711630,BD2GI,AOML,ARAON,North
2020-09-08T15:00:00Z,1599577200,2020,15,0,252.625,252.625,58.79,-179.251,1021.8,10.24,-999.0,yes,yes,no,300534060711630,BD2GI,AOML,ARAON,North
2020-09-08T16:00:02Z,1599580803,2020,16,0,252.6667,252.6667,58.785,-179.253,1022.1,10.24,-999.0,yes,yes,no,300534060711630,BD2GI,AOML,ARAON,North
2020-09-08T16:59:57Z,1599584397,2020,17,0,252.7083,252.7083,58.78,-179.256,1022.2,10.22,-999.0,yes,yes,no,300534060711630,BD2GI,AOML,ARAON,North
2020-09-08T18:00:00Z,1599588000,2020,18,0,252.75,252.75,58.776,-179.26,1022.6,10.2,-999.0,yes,yes,no,300534060711630,BD2GI,AOML,ARAON,North
2020-09-08T19:00:02Z,1599591603,2020,19,0,252.7917,252.7917,58.774,-179.264,1023.0,10.22,-999.0,yes,yes,no,300534060711630,BD2GI,AOML,ARAON,North
2020-09-08T19:59:57Z,1599595197,2020,20,0,252.8333,252.8333,58.772,-179.268,1023.3,10.25,-999.0,yes,yes,no,300534060711630,BD2GI,AOML,ARAON,North
2020-09-08T21:00:00Z,1599598800,2020,21,0,252.875,252.875,58.77,-179.272,1023.5,10.29,-999.0,yes,yes,no,300534060711630,BD2GI,AOML,ARAON,North
2020-09-08T22:00:02Z,1599602403,2020,22,0,252.9167,252.9167,58.768,-179.273,1023.5,10.34,-999.0,yes,yes,no,300534060711630,BD2GI,AOML,ARAON,North
2020-09-08T22:59:57Z,1599605997,2020,23,0,252.9583,252.9583,58.766,-179.27,1023.7,10.35,-999.0,yes,yes,no,300534060711630,BD2GI,AOML,ARAON,North
2020-09-09T00:00:00Z,1599609600,2020,0,0,253.0,253.0,58.761,-179.267,1023.8,10.37,-999.0,yes,yes,no,300534060711630,BD2GI,AOML,ARAON,North
2020-09-09T01:00:02Z,1599613203,2020,1,0,253.0417,253.0417,58.757,-179.265,1023.8,10.38,-999.0,yes,yes,no,300534060711630,BD2GI,AOML,ARAON,North
2020-09-09T01:59:57Z,1599616797,2020,2,0,253.0833,253.0833,58.751,-179.265,1023.8,10.39,-999.0,yes,yes,no,300534060711630,BD2GI,AOML,ARAON,North
2020-09-09T03:00:00Z,1599620400,2020,3,0,253.125,253.125,58.744,-179.267,1023.6,10.4,-999.0,yes,yes,no,300534060711630,BD2GI,AOML,ARAON,North
2020-09-09T04:00:02Z,1599624003,2020,4,0,253.1667,253.1667,58.737,-179.272,1023.5,10.39,-999.0,yes,yes,no,300534060711630,BD2GI,AOML,ARAON,North
2020-09-09T04:59:57Z,1599627597,2020,5,0,253.2083,253.2083,58.732,-179.279,1023.3,10.38,-999.0,yes,yes,no,300534060711630,BD2GI,AOML,ARAON,North
2020-09-09T06:00:00Z,1599631200,2020,6,0,253.25,253.25,58.727,-179.287,1023.0,10.36,-999.0,yes,yes,no,300534060711630,BD2GI,AOML,ARAON,North
2020-09-09T07:00:02Z,1599634803,2020,7,0,253.2917,253.2917,58.725,-179.297,1023.3,10.34,-999.0,yes,yes,no,300534060711630,BD2GI,AOML,ARAON,North
2020-09-09T07:59:57Z,1599638397,2020,8,0,253.3333,253.3333,58.724,-179.305,1023.3,10.33,-999.0,yes,yes,no,300534060711630,BD2GI,AOML,ARAON,North
2020-09-09T09:00:00Z,1599642000,2020,9,0,253.375,253.375,58.724,-179.31,1023.1,10.3,-999.0,yes,yes,no,300534060711630,BD2GI,AOML,ARAON,North
2020-09-09T10:00:02Z,1599645603,2020,10,0,253.4167,253.4167,58.726,-179.313,1022.9,10.3,-999.0,yes,yes,no,300534060711630,BD2GI,AOML,ARAON,North
2020-09-09T10:59:57Z,1599649197,2020,11,0,253.4583,253.4583,58.727,-179.311,1022.7,10.28,-999.0,yes,yes,no,300534060711630,BD2GI,AOML,ARAON,North
2020-09-09T12:00:00Z,1599652800,2020,12,0,253.5,253.5,58.728,-179.307,1022.6,10.28,-999.0,yes,yes,no,300534060711630,BD2GI,AOML,ARAON,North
2020-09-09T13:00:02Z,1599656403,2020,13,0,253.5417,253.5417,58.728,-179.3,1022.2,10.27,-999.0,yes,yes,no,300534060711630,BD2GI,AOML,ARAON,North
2020-09-09T13:59:57Z,1599659997,2020,14,0,253.5833,253.5833,58.725,-179.292,1021.8,10.26,-999.0,yes,yes,no,300534060711630,BD2GI,AOML,ARAON,North
2020-09-09T15:00:00Z,1599663600,2020,15,0,253.625,253.625,58.72,-179.284,1021.7,10.25,-999.0,yes,yes,no,300534060711630,BD2GI,AOML,ARAON,North
2020-09-09T16:00:02Z,1599667203,2020,16,0,253.6667,253.6667,58.713,-179.282,1021.3,10.23,-999.0,yes,yes,no,300534060711630,BD2GI,AOML,ARAON,North
2020-09-09T16:59:57Z,1599670797,2020,17,0,253.7083,253.7083,58.707,-179.285,1021.2,10.24,-999.0,yes,yes,no,300534060711630,BD2GI,AOML,ARAON,North
2020-09-09T18:00:00Z,1599674400,2020,18,0,253.75,253.75,58.7,-179.29,1021.2,10.23,-999.0,yes,yes,no,300534060711630,BD2GI,AOML,ARAON,North
2020-09-09T19:00:02Z,1599678003,2020,19,0,253.7917,253.7917,58.697,-179.297,1021.3,10.23,-999.0,yes,yes,no,300534060711630,BD2GI,AOML,ARAON,North
2020-09-09T19:59:57Z,1599681597,2020,20,0,253.8333,253.8333,58.695,-179.305,1021.5,10.23,-999.0,yes,yes,no,300534060711630,BD2GI,AOML,ARAON,North
2020-09-09T21:00:00Z,1599685200,2020,21,0,253.875,253.875,58.695,-179.315,1021.8,10.23,-999.0,yes,yes,no,300534060711630,BD2GI,AOML,ARAON,North
2020-09-09T22:00:02Z,1599688803,2020,22,0,253.9167,253.9167,58.696,-179.323,1021.8,10.23,-999.0,yes,yes,no,300534060711630,BD2GI,AOML,ARAON,North
2020-09-09T22:59:57Z,1599692397,2020,23,0,253.9583,253.9583,58.698,-179.327,1021.8,10.23,-999.0,yes,yes,no,300534060711630,BD2GI,AOML,ARAON,North
2020-09-10T00:00:00Z,1599696000,2020,0,0,254.0,254.0,58.699,-179.327,1021.7,10.23,-999.0,yes,yes,no,300534060711630,BD2GI,AOML,ARAON,North
2020-09-10T01:00:02Z,1599699603,2020,1,0,254.0417,254.0417,58.699,-179.322,1021.7,10.24,-999.0,yes,yes,no,300534060711630,BD2GI,AOML,ARAON,North
2020-09-10T01:59:57Z,1599703197,2020,2,0,254.0833,254.0833,58.697,-179.316,1021.4,10.23,-999.0,yes,yes,no,300534060711630,BD2GI,AOML,ARAON,North
2020-09-10T03:00:00Z,1599706800,2020,3,0,254.125,254.125,58.693,-179.31,1021.2,10.24,-999.0,yes,yes,no,300534060711630,BD2GI,AOML,ARAON,North
2020-09-10T04:00:02Z,1599710403,2020,4,0,254.1667,254.1667,58.688,-179.31,1020.9,10.23,-999.0,yes,yes,no,300534060711630,BD2GI,AOML,ARAON,North
2020-09-10T04:59:57Z,1599713997,2020,5,0,254.2083,254.2083,58.681,-179.314,1020.8,10.22,-999.0,yes,yes,no,300534060711630,BD2GI,AOML,ARAON,North
2020-09-10T06:00:00Z,1599717600,2020,6,0,254.25,254.25,58.676,-179.319,1020.5,10.22,-999.0,yes,yes,no,300534060711630,BD2GI,AOML,ARAON,North
2020-09-10T07:00:02Z,1599721203,2020,7,0,254.2917,254.2917,58.67,-179.328,1020.6,10.22,-999.0,yes,yes,no,300534060711630,BD2GI,AOML,ARAON,North
2020-09-10T07:59:57Z,1599724797,2020,8,0,254.3333,254.3333,58.666,-179.339,1020.7,10.21,-999.0,yes,yes,no,300534060711630,BD2GI,AOML,ARAON,North
2020-09-10T09:00:00Z,1599728400,2020,9,0,254.375,254.375,58.663,-179.352,1020.4,10.21,-999.0,yes,yes,no,300534060711630,BD2GI,AOML,ARAON,North
2020-09-10T10:00:02Z,1599732003,2020,10,0,254.4167,254.4167,58.662,-179.364,1020.2,10.2,-999.0,yes,yes,no,300534060711630,BD2GI,AOML,ARAON,North
2020-09-10T10:59:57Z,1599735597,2020,11,0,254.4583,254.4583,58.662,-179.376,1020.0,10.2,-999.0,yes,yes,no,300534060711630,BD2GI,AOML,ARAON,North
2020-09-10T12:00:00Z,1599739200,2020,12,0,254.5,254.5,58.665,-179.385,1019.8,10.2,-999.0,yes,yes,no,300534060711630,BD2GI,AOML,ARAON,North
2020-09-10T13:00:02Z,1599742803,2020,13,0,254.5417,254.5417,58.667,-179.39,1019.6,10.18,-999.0,yes,yes,no,300534060711630,BD2GI,AOML,ARAON,North
2020-09-10T13:59:57Z,1599746397,2020,14,0,254.5833,254.5833,58.668,-179.389,1019.3,10.18,-999.0,yes,yes,no,300534060711630,BD2GI,AOML,ARAON,North
2020-09-10T15:00:00Z,1599750000,2020,15,0,254.625,254.625,58.668,-179.386,1018.9,10.16,-999.0,yes,yes,no,300534060711630,BD2GI,AOML,ARAON,North
2020-09-10T16:00:02Z,1599753603,2020,16,0,254.6667,254.6667,58.666,-179.383,1018.8,10.15,-999.0,yes,yes,no,300534060711630,BD2GI,AOML,ARAON,North
2020-09-10T16:59:57Z,1599757197,2020,17,0,254.7083,254.7083,58.662,-179.379,1018.9,10.14,-999.0,yes,yes,no,300534060711630,BD2GI,AOML,ARAON,North
2020-09-10T18:00:00Z,1599760800,2020,18,0,254.75,254.75,58.657,-179.381,1019.2,10.11,-999.0,yes,yes,no,300534060711630,BD2GI,AOML,ARAON,North
2020-09-10T19:00:02Z,1599764403,2020,19,0,254.7917,254.7917,58.654,-179.386,1019.2,10.1,-999.0,yes,yes,no,300534060711630,BD2GI,AOML,ARAON,North
2020-09-10T19:59:57Z,1599767997,2020,20,0,254.8333,254.8333,58.651,-179.396,1019.3,10.09,-999.0,yes,yes,no,300534060711630,BD2GI,AOML,ARAON,North
2020-09-10T21:00:00Z,1599771600,2020,21,0,254.875,254.875,58.65,-179.406,1019.3,10.08,-999.0,yes,yes,no,300534060711630,BD2GI,AOML,ARAON,North
2020-09-10T22:00:02Z,1599775203,2020,22,0,254.9167,254.9167,58.649,-179.418,1019.3,10.07,-999.0,yes,yes,no,300534060711630,BD2GI,AOML,ARAON,North
2020-09-10T22:59:57Z,1599778797,2020,23,0,254.9583,254.9583,58.649,-179.429,1019.1,10.07,-999.0,yes,yes,no,300534060711630,BD2GI,AOML,ARAON,North
2020-09-11T00:00:00Z,1599782400,2020,0,0,255.0,255.0,58.651,-179.44,1018.9,10.06,-999.0,yes,yes,no,300534060711630,BD2GI,AOML,ARAON,North
2020-09-11T01:00:02Z,1599786003,2020,1,0,255.0417,255.0417,58.652,-179.447,1018.7,10.05,-999.0,yes,yes,no,300534060711630,BD2GI,AOML,ARAON,North
2020-09-11T01:59:57Z,1599789597,2020,2,0,255.0833,255.0833,58.654,-179.453,1018.5,10.05,-999.0,yes,yes,no,300534060711630,BD2GI,AOML,ARAON,North
2020-09-11T03:00:00Z,1599793200,2020,3,0,255.125,255.125,58.653,-179.458,1018.2,10.05,-999.0,yes,yes,no,300534060711630,BD2GI,AOML,ARAON,North
2020-09-11T04:00:02Z,1599796803,2020,4,0,255.1667,255.1667,58.651,-179.462,1018.1,10.04,-999.0,yes,yes,no,300534060711630,BD2GI,AOML,ARAON,North
2020-09-11T04:59:57Z,1599800397,2020,5,0,255.2083,255.2083,58.649,-179.468,1017.8,10.04,-999.0,yes,yes,no,300534060711630,BD2GI,AOML,ARAON,North
2020-09-11T06:00:00Z,1599804000,2020,6,0,255.25,255.25,58.646,-179.477,1017.6,10.03,-999.0,yes,yes,no,300534060711630,BD2GI,AOML,ARAON,North
2020-09-11T07:00:02Z,1599807603,2020,7,0,255.2917,255.2917,58.645,-179.486,1017.5,10.03,-999.0,yes,yes,no,300534060711630,BD2GI,AOML,ARAON,North
2020-09-11T07:59:57Z,1599811197,2020,8,0,255.3333,255.3333,58.643,-179.493,1017.8,10.01,-999.0,yes,yes,no,300534060711630,BD2GI,AOML,ARAON,North
2020-09-11T09:00:00Z,1599814800,2020,9,0,255.375,255.375,58.642,-179.508,1018.0,10.01,-999.0,yes,yes,no,300534060711630,BD2GI,AOML,ARAON,North
2020-09-11T10:00:02Z,1599818403,2020,10,0,255.4167,255.4167,58.641,-179.517,1018.0,10.01,-999.0,yes,yes,no,300534060711630,BD2GI,AOML,ARAON,North
2020-09-11T10:59:57Z,1599821997,2020,11,0,255.4583,255.4583,58.638,-179.526,1018.0,10.0,-999.0,yes,yes,no,300534060711630,BD2GI,AOML,ARAON,North
2020-09-11T12:00:00Z,1599825600,2020,12,0,255.5,255.5,58.636,-179.535,1018.0,10.0,-999.0,yes,yes,no,300534060711630,BD2GI,AOML,ARAON,North
2020-09-11T13:00:02Z,1599829203,2020,13,0,255.5417,255.5417,58.634,-179.546,1018.1,10.0,-999.0,yes,yes,no,300534060711630,BD2GI,AOML,ARAON,North
2020-09-11T13:59:57Z,1599832797,2020,14,0,255.5833,255.5833,58.633,-179.556,1018.1,10.0,-999.0,yes,yes,no,300534060711630,BD2GI,AOML,ARAON,North
2020-09-11T15:00:00Z,1599836400,2020,15,0,255.625,255.625,58.631,-179.567,1018.0,10.0,-999.0,yes,yes,no,300534060711630,BD2GI,AOML,ARAON,North
2020-09-11T16:00:02Z,1599840003,2020,16,0,255.6667,255.6667,58.628,-179.575,1017.9,10.0,-999.0,yes,yes,no,300534060711630,BD2GI,AOML,ARAON,North
2020-09-11T16:59:57Z,1599843597,2020,17,0,255.7083,255.7083,58.624,-179.587,1017.8,10.0,-999.0,yes,yes,no,300534060711630,BD2GI,AOML,ARAON,North
2020-09-11T18:00:00Z,1599847200,2020,18,0,255.75,255.75,58.62,-179.6,1017.8,10.0,-999.0,yes,yes,no,300534060711630,BD2GI,AOML,ARAON,North
2020-09-11T19:00:02Z,1599850803,2020,19,0,255.7917,255.7917,58.619,-179.613,1018.0,9.99,-999.0,yes,yes,no,300534060711630,BD2GI,AOML,ARAON,North
2020-09-11T19:59:57Z,1599854397,2020,20,0,255.8333,255.8333,58.619,-179.628,1017.9,10.0,-999.0,yes,yes,no,300534060711630,BD2GI,AOML,ARAON,North
2020-09-11T21:00:00Z,1599858000,2020,21,0,255.875,255.875,58.621,-179.642,1017.8,10.0,-999.0,yes,yes,no,300534060711630,BD2GI,AOML,ARAON,North
2020-09-11T22:00:02Z,1599861603,2020,22,0,255.9167,255.9167,58.624,-179.652,1017.4,10.01,-999.0,yes,yes,no,300534060711630,BD2GI,AOML,ARAON,North
2020-09-11T22:59:57Z,1599865197,2020,23,0,255.9583,255.9583,58.626,-179.66,1016.7,10.01,-999.0,yes,yes,no,300534060711630,BD2GI,AOML,ARAON,North
2020-09-12T00:00:00Z,1599868800,2020,0,0,256.0,256.0,58.629,-179.67,1015.8,10.02,-999.0,yes,yes,no,300534060711630,BD2GI,AOML,ARAON,North
2020-09-12T01:00:02Z,1599872403,2020,1,0,256.0417,256.0417,58.632,-179.678,1014.9,10.01,-999.0,yes,yes,no,300534060711630,BD2GI,AOML,ARAON,North
2020-09-12T01:59:57Z,1599875997,2020,2,0,256.0833,256.0833,58.635,-179.685,1013.7,10.01,-999.0,yes,yes,no,300534060711630,BD2GI,AOML,ARAON,North
2020-09-12T03:00:00Z,1599879600,2020,3,0,256.125,256.125,58.637,-179.692,1012.6,10.0,-999.0,yes,yes,no,300534060711630,BD2GI,AOML,ARAON,North
2020-09-12T04:00:02Z,1599883203,2020,4,0,256.1667,256.1667,58.638,-179.7,1011.5,10.0,-999.0,yes,yes,no,300534060711630,BD2GI,AOML,ARAON,North
2020-09-12T04:59:57Z,1599886797,2020,5,0,256.2083,256.2083,58.64,-179.709,1010.1,9.99,-999.0,yes,yes,no,300534060711630,BD2GI,AOML,ARAON,North
2020-09-12T06:00:00Z,1599890400,2020,6,0,256.25,256.25,58.642,-179.722,1008.7,9.97,-999.0,yes,yes,no,300534060711630,BD2GI,AOML,ARAON,North
2020-09-12T07:00:02Z,1599894003,2020,7,0,256.2917,256.2917,58.647,-179.737,1007.5,9.95,-999.0,yes,yes,no,300534060711630,BD2GI,AOML,ARAON,North
2020-09-12T07:59:57Z,1599897597,2020,8,0,256.3333,256.3333,58.654,-179.753,1006.2,9.93,-999.0,yes,yes,no,300534060711630,BD2GI,AOML,ARAON,North
2020-09-12T09:00:00Z,1599901200,2020,9,0,256.375,256.375,58.662,-179.765,1004.7,9.91,-999.0,yes,yes,no,300534060711630,BD2GI,AOML,ARAON,North
2020-09-12T10:00:02Z,1599904803,2020,10,0,256.4167,256.4167,58.672,-179.775,1003.1,9.88,-999.0,yes,yes,no,300534060711630,BD2GI,AOML,ARAON,North
2020-09-12T10:59:57Z,1599908397,2020,11,0,256.4583,256.4583,58.685,-179.784,1002.0,9.85,-999.0,yes,yes,no,300534060711630,BD2GI,AOML,ARAON,North
2020-09-12T12:00:00Z,1599912000,2020,12,0,256.5,256.5,58.699,-179.785,1000.9,9.82,-999.0,yes,yes,no,300534060711630,BD2GI,AOML,ARAON,North
2020-09-12T13:00:02Z,1599915603,2020,13,0,256.5417,256.5417,58.712,-179.775,1000.0,9.79,-999.0,yes,yes,no,300534060711630,BD2GI,AOML,ARAON,North
2020-09-12T13:59:57Z,1599919197,2020,14,0,256.5833,256.5833,58.721,-179.763,999.5,9.77,-999.0,yes,yes,no,300534060711630,BD2GI,AOML,ARAON,North
2020-09-12T15:00:00Z,1599922800,2020,15,0,256.625,256.625,58.729,-179.745,999.3,9.75,-999.0,yes,yes,no,300534060711630,BD2GI,AOML,ARAON,North
2020-09-12T16:00:02Z,1599926403,2020,16,0,256.6667,256.6667,58.734,-179.727,999.5,9.74,-999.0,yes,yes,no,300534060711630,BD2GI,AOML,ARAON,North
2020-09-12T16:59:57Z,1599929997,2020,17,0,256.7083,256.7083,58.735,-179.71,1000.2,9.72,-999.0,yes,yes,no,300534060711630,BD2GI,AOML,ARAON,North
2020-09-12T18:00:00Z,1599933600,2020,18,0,256.75,256.75,58.735,-179.696,1000.9,9.7,-999.0,yes,yes,no,300534060711630,BD2GI,AOML,ARAON,North
2020-09-12T19:00:02Z,1599937203,2020,19,0,256.7917,256.7917,58.733,-179.687,1001.5,9.68,-999.0,yes,yes,no,300534060711630,BD2GI,AOML,ARAON,North
2020-09-12T19:59:57Z,1599940797,2020,20,0,256.8333,256.8333,58.731,-179.683,1002.0,9.66,-999.0,yes,yes,no,300534060711630,BD2GI,AOML,ARAON,North
2020-09-12T21:00:00Z,1599944400,2020,21,0,256.875,256.875,58.729,-179.683,1002.6,9.65,-999.0,yes,yes,no,300534060711630,BD2GI,AOML,ARAON,North
2020-09-12T22:00:02Z,1599948003,2020,22,0,256.9167,256.9167,58.728,-179.687,1003.0,9.64,-999.0,yes,yes,no,300534060711630,BD2GI,AOML,ARAON,North
2020-09-12T22:59:57Z,1599951597,2020,23,0,256.9583,256.9583,58.728,-179.694,1003.3,9.64,-999.0,yes,yes,no,300534060711630,BD2GI,AOML,ARAON,North
2020-09-13T00:00:00Z,1599955200,2020,0,0,257.0,257.0,58.731,-179.705,1003.1,9.63,-999.0,yes,yes,no,300534060711630,BD2GI,AOML,ARAON,North
2020-09-13T01:00:02Z,1599958803,2020,1,0,257.0417,257.0417,58.736,-179.713,1003.2,9.64,-999.0,yes,yes,no,300534060711630,BD2GI,AOML,ARAON,North
2020-09-13T01:59:57Z,1599962397,2020,2,0,257.0833,257.0833,58.744,-179.719,1003.2,9.62,-999.0,yes,yes,no,300534060711630,BD2GI,AOML,ARAON,North
2020-09-13T03:00:00Z,1599966000,2020,3,0,257.125,257.125,58.754,-179.721,1002.7,9.62,-999.0,yes,yes,no,300534060711630,BD2GI,AOML,ARAON,North
2020-09-13T04:00:02Z,1599969603,2020,4,0,257.1667,257.1667,58.765,-179.719,1002.6,9.62,-999.0,yes,yes,no,300534060711630,BD2GI,AOML,ARAON,North
2020-09-13T04:59:57Z,1599973197,2020,5,0,257.2083,257.2083,58.777,-179.712,1002.7,9.62,-999.0,yes,yes,no,300534060711630,BD2GI,AOML,ARAON,North
2020-09-13T06:00:00Z,1599976800,2020,6,0,257.25,257.25,58.788,-179.701,1002.8,9.61,-999.0,yes,yes,no,300534060711630,BD2GI,AOML,ARAON,North
2020-09-13T07:00:02Z,1599980403,2020,7,0,257.2917,257.2917,58.797,-179.684,1003.2,9.6,-999.0,yes,yes,no,300534060711630,BD2GI,AOML,ARAON,North
2020-09-13T07:59:57Z,1599983997,2020,8,0,257.3333,257.3333,58.802,-179.665,1003.3,9.6,-999.0,yes,yes,no,300534060711630,BD2GI,AOML,ARAON,North
2020-09-13T09:00:00Z,1599987600,2020,9,0,257.375,257.375,58.803,-179.644,1003.3,9.6,-999.0,yes,yes,no,300534060711630,BD2GI,AOML,ARAON,North
2020-09-13T10:00:02Z,1599991203,2020,10,0,257.4167,257.4167,58.801,-179.627,1003.0,9.59,-999.0,yes,yes,no,300534060711630,BD2GI,AOML,ARAON,North
2020-09-13T10:59:57Z,1599994797,2020,11,0,257.4583,257.4583,58.796,-179.617,1002.7,9.58,-999.0,yes,yes,no,300534060711630,BD2GI,AOML,ARAON,North
2020-09-13T12:00:00Z,1599998400,2020,12,0,257.5,257.5,58.79,-179.613,1002.4,9.58,-999.0,yes,yes,no,300534060711630,BD2GI,AOML,ARAON,North
2020-09-13T13:00:02Z,1600002003,2020,13,0,257.5417,257.5417,58.785,-179.619,1002.0,9.57,-999.0,yes,yes,no,300534060711630,BD2GI,AOML,ARAON,North
2020-09-13T13:59:57Z,1600005597,2020,14,0,257.5833,257.5833,58.784,-179.629,1001.8,9.57,-999.0,yes,yes,no,300534060711630,BD2GI,AOML,ARAON,North
2020-09-13T15:00:00Z,1600009200,2020,15,0,257.625,257.625,58.785,-179.638,1001.3,9.56,-999.0,yes,yes,no,300534060711630,BD2GI,AOML,ARAON,North
2020-09-13T16:00:02Z,1600012803,2020,16,0,257.6667,257.6667,58.789,-179.65,1001.0,9.56,-999.0,yes,yes,no,300534060711630,BD2GI,AOML,ARAON,North
2020-09-13T16:59:57Z,1600016397,2020,17,0,257.7083,257.7083,58.799,-179.661,1000.8,9.56,-999.0,yes,yes,no,300534060711630,BD2GI,AOML,ARAON,North
2020-09-13T18:00:00Z,1600020000,2020,18,0,257.75,257.75,58.812,-179.663,1000.6,9.55,-999.0,yes,yes,no,300534060711630,BD2GI,AOML,ARAON,North
2020-09-13T19:00:02Z,1600023603,2020,19,0,257.7917,257.7917,58.825,-179.657,1000.8,9.55,-999.0,yes,yes,no,300534060711630,BD2GI,AOML,ARAON,North
2020-09-13T19:59:57Z,1600027197,2020,20,0,257.8333,257.8333,58.838,-179.642,1000.9,9.55,-999.0,yes,yes,no,300534060711630,BD2GI,AOML,ARAON,North
2020-09-13T21:00:00Z,1600030800,2020,21,0,257.875,257.875,58.849,-179.619,1000.8,9.55,-999.0,yes,yes,no,300534060711630,BD2GI,AOML,ARAON,North
2020-09-13T22:00:02Z,1600034403,2020,22,0,257.9167,257.9167,58.854,-179.592,1000.8,9.54,-999.0,yes,yes,no,300534060711630,BD2GI,AOML,ARAON,North
2020-09-13T22:59:57Z,1600037997,2020,23,0,257.9583,257.9583,58.856,-179.566,1000.6,9.55,-999.0,yes,yes,no,300534060711630,BD2GI,AOML,ARAON,North
2020-09-14T00:00:00Z,1600041600,2020,0,0,258.0,258.0,58.853,-179.543,1000.5,9.55,-999.0,yes,yes,no,300534060711630,BD2GI,AOML,ARAON,North
2020-09-14T01:00:02Z,1600045203,2020,1,0,258.0417,258.0417,58.849,-179.527,1000.1,9.54,-999.0,yes,yes,no,300534060711630,BD2GI,AOML,ARAON,North
2020-09-14T01:59:57Z,1600048797,2020,2,0,258.0833,258.0833,58.842,-179.52,999.8,9.54,-999.0,yes,yes,no,300534060711630,BD2GI,AOML,ARAON,North
2020-09-14T03:00:00Z,1600052400,2020,3,0,258.125,258.125,58.836,-179.523,999.7,9.53,-999.0,yes,yes,no,300534060711630,BD2GI,AOML,ARAON,North
2020-09-14T04:00:02Z,1600056003,2020,4,0,258.1667,258.1667,58.834,-179.529,999.4,9.53,-999.0,yes,yes,no,300534060711630,BD2GI,AOML,ARAON,North
2020-09-14T04:59:57Z,1600059597,2020,5,0,258.2083,258.2083,58.863,-179.572,1024.0,9.53,-999.0,yes,yes,no,300534060711630,BD2GI,AOML,ARAON,North
2020-09-14T06:00:00Z,1600063200,2020,6,0,258.25,258.25,58.84,-179.548,999.0,9.53,-999.0,yes,yes,no,300534060711630,BD2GI,AOML,ARAON,North
2020-09-14T07:00:02Z,1600066803,2020,7,0,258.2917,258.2917,58.848,-179.553,999.0,9.52,-999.0,yes,yes,no,300534060711630,BD2GI,AOML,ARAON,North
2020-09-14T07:59:57Z,1600070397,2020,8,0,258.3333,258.3333,58.859,-179.553,999.1,9.52,-999.0,yes,yes,no,300534060711630,BD2GI,AOML,ARAON,North
2020-09-14T09:00:00Z,1600074000,2020,9,0,258.375,258.375,58.87,-179.545,999.1,9.51,-999.0,yes,yes,no,300534060711630,BD2GI,AOML,ARAON,North
2020-09-14T10:00:02Z,1600077603,2020,10,0,258.4167,258.4167,58.88,-179.532,999.4,9.51,-999.0,yes,yes,no,300534060711630,BD2GI,AOML,ARAON,North
2020-09-14T10:59:57Z,1600081197,2020,11,0,258.4583,258.4583,58.887,-179.51,999.8,9.5,-999.0,yes,yes,no,300534060711630,BD2GI,AOML,ARAON,North
2020-09-14T12:00:00Z,1600084800,2020,12,0,258.5,258.5,58.889,-179.484,999.9,9.5,-999.0,yes,yes,no,300534060711630,BD2GI,AOML,ARAON,North
2020-09-14T13:00:02Z,1600088403,2020,13,0,258.5417,258.5417,58.886,-179.461,999.9,9.5,-999.0,yes,yes,no,300534060711630,BD2GI,AOML,ARAON,North
2020-09-14T13:59:57Z,1600091997,2020,14,0,258.5833,258.5833,58.879,-179.444,1000.0,9.5,-999.0,yes,yes,no,300534060711630,BD2GI,AOML,ARAON,North
2020-09-14T15:00:00Z,1600095600,2020,15,0,258.625,258.625,58.872,-179.435,1000.2,9.5,-999.0,yes,yes,no,300534060711630,BD2GI,AOML,ARAON,North
2020-09-14T16:00:02Z,1600099203,2020,16,0,258.6667,258.6667,58.865,-179.429,1000.3,9.5,-999.0,yes,yes,no,300534060711630,BD2GI,AOML,ARAON,North
2020-09-14T16:59:57Z,1600102797,2020,17,0,258.7083,258.7083,58.858,-179.427,1000.5,9.49,-999.0,yes,yes,no,300534060711630,BD2GI,AOML,ARAON,North
2020-09-14T18:00:00Z,1600106400,2020,18,0,258.75,258.75,58.852,-179.43,1001.0,9.49,-999.0,yes,yes,no,300534060711630,BD2GI,AOML,ARAON,North
2020-09-14T19:00:02Z,1600110003,2020,19,0,258.7917,258.7917,58.849,-179.437,1001.5,9.5,-999.0,yes,yes,no,300534060711630,BD2GI,AOML,ARAON,North